sat.trackr.live / text

‹ back to catalog

ONEWEB-0068

NORAD 45446 · 2020-020Y

PAYLOAD ACTIVE UNKNOWN

§ Identity

Operator
Country
UK
Launch date
2020-03-21
Launch site
TYMSC
Launch vehicle
Mass (kg)
RCS (m²)

Purposes: comms

External: N2YO · Heavens-Above · Gunter

§ Orbital elements

Epoch: 2026-05-25T02:40:52.925088Z

Period
109.80 min
Inclination
87.8919°
Eccentricity
0.0001929
Mean motion
13.11417238 rev/d
Perigee alt
1,216.2 km
Apogee alt
1,219.1 km
Semi-major
7,595.8 km
B*
1.3703e-3
RAAN
25.6529°
Arg perigee
76.9941°
Mean anomaly
283.1402°
Rev number
29,957

§ Raw data

ONEWEB-00681 45446U 20020Y   26145.11172367  .00000498  00000+0  13703-2 0  99992 45446  87.8919  25.6529 0001929  76.9941 283.1402 13.11417238299576

JSON: /api/v1/satellites/45446 · /tle

For live sub-satellite position, see the globe view (requires WebGL).

§ Visibility from observer

Set your observer location to see the next 7 days of passes ≥ 10°. The values pass through the URL so the page stays shareable.

No JS? Fill the form by hand. The geolocation button needs JavaScript.